Location: Newark
(36.7000°N, 45.1333°E)
Time: 19:39:18
(UTC+00:00)

LightSail 2 - Pass Details

Date: 24 January 2020
Orbit: 700 x 722 km, 24.0° (Epoch: 19 February)

Event Time Altitude Azimuth Distance (km) Brightness Sun altitude
Rises 16:36:08 0° 248° (WSW) 3,083 9.5 -28.0°
Reaches altitude 10° 16:39:34 10° 225° (SW) 2,169 8.2 -28.7°
Maximum altitude 16:42:22 15° 192° (SSW) 1,867 7.4 -29.3°
Enters shadow 16:42:45 15° 187° (S) 1,873 7.4 -29.4°
